When you browse on this site, cookies collect data to enhance your experience and personalize the content and advertising you see.
Visit our Privacy Policy to learn more. By continuing to use the site, you agree to this use of cookies and data.
  • In Portugal
  • List of Countries
  • For 7 days
  • Water Temperature
  • Satellite Maps
  • Weather Map
  • Weather Widgets
  • user-avatar
    Login

    Hourly Weather Nuwejba

    Today, 22 May, Wednesday

    Time Temperature Precipitation Wind Pressure Humidity
    00:00 +28°C° 0 mm 2 mps 694 mmHg 25%
    01:00 +27°C° 0 mm 2 mps 694 mmHg 27%
    02:00 +26°C° 0 mm 2 mps 694 mmHg 29%
    03:00 +26°C° 0 mm 2 mps 694 mmHg 29%
    04:00 +25°C° 0 mm 1 mps 694 mmHg 30%
    05:00 +25°C° 0 mm 1 mps 694 mmHg 30%
    06:00 +27°C° 0 mm 1 mps 694 mmHg 26%
    07:00 +29°C° 0 mm 2 mps 695 mmHg 21%
    08:00 +30°C° 0 mm 2 mps 695 mmHg 16%
    09:00 +32°C° 0 mm 2 mps 695 mmHg 14%
    10:00 +34°C° 0 mm 3 mps 695 mmHg 13%
    11:00 +36°C° 0 mm 3 mps 695 mmHg 11%
    12:00 +37°C° 0 mm 3 mps 695 mmHg 10%
    13:00 +37°C° 0 mm 3 mps 695 mmHg 9%
    14:00 +38°C° 0 mm 4 mps 695 mmHg 8%
    15:00 +38°C° 0 mm 4 mps 694 mmHg 9%
    16:00 +38°C° 0 mm 4 mps 694 mmHg 9%
    17:00 +38°C° 0 mm 4 mps 694 mmHg 9%
    18:00 +36°C° 0 mm 4 mps 694 mmHg 10%
    19:00 +35°C° 0 mm 3 mps 694 mmHg 11%
    20:00 +33°C° 0 mm 3 mps 694 mmHg 11%
    21:00 +32°C° 0 mm 2 mps 694 mmHg 12%
    22:00 +31°C° 0 mm 2 mps 694 mmHg 12%
    23:00 +30°C° 0 mm 2 mps 694 mmHg 13%

    Tomorrow, 23 May, Thursday

    Time Temperature Precipitation Wind Pressure Humidity
    00:00 +29°C° 0 mm 2 mps 694 mmHg 13%
    01:00 +28°C° 0 mm 2 mps 693 mmHg 14%
    02:00 +28°C° 0 mm 2 mps 693 mmHg 14%
    03:00 +27°C° 0 mm 1 mps 693 mmHg 15%
    04:00 +27°C° 0 mm 1 mps 693 mmHg 15%
    05:00 +26°C° 0 mm 1 mps 693 mmHg 16%
    06:00 +28°C° 0 mm 2 mps 693 mmHg 15%
    07:00 +30°C° 0 mm 2 mps 694 mmHg 13%
    08:00 +34°C° 0 mm 2 mps 694 mmHg 11%
    09:00 +35°C° 0 mm 3 mps 694 mmHg 11%
    10:00 +36°C° 0 mm 3 mps 694 mmHg 10%
    11:00 +37°C° 0 mm 4 mps 694 mmHg 9%
    12:00 +38°C° 0 mm 3 mps 694 mmHg 9%
    13:00 +39°C° 0 mm 3 mps 693 mmHg 9%
    14:00 +39°C° 0 mm 3 mps 693 mmHg 8%
    15:00 +39°C° 0 mm 3 mps 693 mmHg 8%
    16:00 +39°C° 0 mm 2 mps 692 mmHg 8%
    17:00 +38°C° 0 mm 2 mps 692 mmHg 8%
    18:00 +36°C° 0 mm 1 mps 692 mmHg 9%
    19:00 +35°C° 0 mm 1 mps 692 mmHg 10%
    20:00 +33°C° 0 mm 1 mps 692 mmHg 11%
    21:00 +32°C° 0 mm 1 mps 692 mmHg 12%
    22:00 +31°C° 0 mm 1 mps 692 mmHg 13%
    23:00 +31°C° 0 mm 1 mps 692 mmHg 13%

    Day after tomorrow, 24 May, Friday

    Time Temperature Precipitation Wind Pressure Humidity
    00:00 +30°C° 0 mm 1 mps 691 mmHg 14%
    01:00 +27°C° 0 mm 0 mps 691 mmHg 14%
    02:00 +27°C° 0 mm 0 mps 691 mmHg 15%
    03:00 +26°C° 0 mm 0 mps 690 mmHg 15%
    04:00 +26°C° 0 mm 0 mps 690 mmHg 15%
    05:00 +28°C° 0 mm 1 mps 690 mmHg 16%
    06:00 +30°C° 0 mm 1 mps 691 mmHg 14%
    07:00 +30°C° 0 mm 0 mps 692 mmHg 12%
    08:00 +33°C° 0 mm 0 mps 693 mmHg 10%
    09:00 +37°C° 0 mm 2 mps 693 mmHg 9%
    10:00 +38°C° 0 mm 3 mps 693 mmHg 9%
    11:00 +41°C° 0 mm 4 mps 693 mmHg 8%
    12:00 +41°C° 0 mm 5 mps 692 mmHg 8%
    13:00 +42°C° 0 mm 6 mps 692 mmHg 8%
    14:00 +43°C° 0 mm 7 mps 692 mmHg 8%
    15:00 +41°C° 0 mm 6 mps 691 mmHg 8%
    16:00 +41°C° 0 mm 5 mps 691 mmHg 8%
    17:00 +40°C° 0 mm 4 mps 691 mmHg 9%
    18:00 +38°C° 0 mm 3 mps 691 mmHg 10%
    19:00 +36°C° 0 mm 2 mps 691 mmHg 12%
    20:00 +33°C° 0 mm 1 mps 691 mmHg 13%
    21:00 +33°C° 0 mm 1 mps 691 mmHg 14%
    22:00 +32°C° 0 mm 1 mps 691 mmHg 14%
    23:00 +31°C° 0 mm 1 mps 691 mmHg 15%

    25 May, Saturday

    Time Temperature Precipitation Wind Pressure Humidity
    00:00 +31°C° 0 mm 1 mps 691 mmHg 16%
    01:00 +28°C° 0 mm 0 mps 691 mmHg 16%
    02:00 +28°C° 0 mm 0 mps 690 mmHg 16%
    03:00 +27°C° 0 mm 0 mps 691 mmHg 17%
    04:00 +27°C° 0 mm 0 mps 691 mmHg 17%
    05:00 +27°C° 0 mm 0 mps 691 mmHg 17%
    06:00 +31°C° 0 mm 1 mps 692 mmHg 16%
    07:00 +32°C° 0 mm 2 mps 693 mmHg 14%
    08:00 +35°C° 0 mm 2 mps 693 mmHg 13%
    09:00 +36°C° 0 mm 2 mps 693 mmHg 13%
    10:00 +37°C° 0 mm 2 mps 693 mmHg 12%
    11:00 +38°C° 0 mm 2 mps 694 mmHg 12%
    12:00 +38°C° 0 mm 2 mps 693 mmHg 11%
    13:00 +39°C° 0 mm 2 mps 693 mmHg 11%
    14:00 +39°C° 0 mm 2 mps 692 mmHg 11%
    15:00 +39°C° 0 mm 2 mps 692 mmHg 12%
    16:00 +38°C° 0 mm 2 mps 692 mmHg 12%
    17:00 +38°C° 0 mm 2 mps 692 mmHg 13%
    18:00 +36°C° 0 mm 1 mps 692 mmHg 15%
    19:00 +34°C° 0 mm 1 mps 692 mmHg 18%
    20:00 +33°C° 0 mm 1 mps 692 mmHg 21%
    21:00 +32°C° 0 mm 1 mps 692 mmHg 24%
    22:00 +31°C° 0 mm 1 mps 692 mmHg 28%
    23:00 +30°C° 0 mm 2 mps 692 mmHg 31%

    26 May, Sunday

    Time Temperature Precipitation Wind Pressure Humidity
    00:00 +29°C° 0 mm 2 mps 692 mmHg 34%
    01:00 +29°C° 0 mm 2 mps 692 mmHg 36%
    02:00 +28°C° 0 mm 2 mps 691 mmHg 39%
    03:00 +28°C° 0 mm 2 mps 691 mmHg 41%
    04:00 +27°C° 0 mm 2 mps 691 mmHg 43%
    05:00 +27°C° 0 mm 2 mps 691 mmHg 45%
    06:00 +28°C° 0 mm 2 mps 691 mmHg 40%
    07:00 +30°C° 0 mm 2 mps 692 mmHg 35%
    08:00 +31°C° 0 mm 2 mps 692 mmHg 30%
    09:00 +34°C° 0 mm 2 mps 692 mmHg 26%
    10:00 +35°C° 0 mm 2 mps 692 mmHg 22%
    11:00 +37°C° 0 mm 2 mps 692 mmHg 17%
    12:00 +37°C° 0.1 mm 2 mps 692 mmHg 16%
    13:00 +38°C° 0.1 mm 2 mps 691 mmHg 15%
    14:00 +38°C° 0.1 mm 2 mps 691 mmHg 14%
    15:00 +38°C° 0.1 mm 2 mps 691 mmHg 15%
    16:00 +37°C° 0.1 mm 3 mps 691 mmHg 16%
    17:00 +37°C° 0.1 mm 3 mps 691 mmHg 17%
    18:00 +36°C° 0 mm 3 mps 691 mmHg 20%
    19:00 +34°C° 0 mm 3 mps 691 mmHg 22%
    20:00 +32°C° 0 mm 2 mps 691 mmHg 25%
    21:00 +31°C° 0 mm 2 mps 691 mmHg 27%
    22:00 +30°C° 0 mm 2 mps 691 mmHg 29%
    23:00 +30°C° 0 mm 2 mps 691 mmHg 31%

    27 May, Monday

    Time Temperature Precipitation Wind Pressure Humidity
    00:00 +29°C° 0 mm 2 mps 690 mmHg 32%
    01:00 +28°C° 0 mm 2 mps 690 mmHg 34%
    02:00 +27°C° 0 mm 2 mps 690 mmHg 35%
    03:00 +27°C° 0 mm 2 mps 690 mmHg 35%
    04:00 +26°C° 0 mm 2 mps 690 mmHg 36%
    05:00 +26°C° 0 mm 2 mps 690 mmHg 36%
    06:00 +27°C° 0 mm 2 mps 690 mmHg 33%
    07:00 +29°C° 0 mm 2 mps 691 mmHg 29%
    08:00 +30°C° 0 mm 2 mps 691 mmHg 26%
    09:00 +32°C° 0 mm 2 mps 691 mmHg 23%
    10:00 +34°C° 0 mm 2 mps 691 mmHg 20%
    11:00 +36°C° 0 mm 2 mps 691 mmHg 17%
    12:00 +37°C° 0 mm 2 mps 691 mmHg 16%
    13:00 +37°C° 0 mm 2 mps 691 mmHg 15%
    14:00 +38°C° 0 mm 2 mps 690 mmHg 15%
    15:00 +37°C° 0 mm 3 mps 690 mmHg 15%
    16:00 +37°C° 0 mm 3 mps 690 mmHg 16%
    17:00 +36°C° 0 mm 3 mps 690 mmHg 17%
    18:00 +35°C° 0 mm 3 mps 690 mmHg 19%
    19:00 +34°C° 0 mm 3 mps 690 mmHg 21%
    20:00 +31°C° 0 mm 2 mps 691 mmHg 23%
    21:00 +31°C° 0 mm 2 mps 690 mmHg 25%
    22:00 +30°C° 0 mm 2 mps 690 mmHg 27%
    23:00 +29°C° 0 mm 2 mps 690 mmHg 29%
    Show more